Holiday — WDF4494 — position and weather

sailwx.info

Track history (hours):
 
Tides and Currents Weather Stations Pressure Air Temp Water Temp Dewpoint Dewpoint Depression Visibility Wind Speed Wind Dir Waves Ship Positions

Holiday

Owner: VOAKLANDER, TIM J, CARDIFF, CA. More information available from US FCC via Universal Licensing System and Coast Guard Vessel Documentation Center.

Last reported at 2017-Sep-25 15:01 UTC. Time now 2017-Sep-25 15:05 UTC.
Position N 32°20' W 117°43'.

Length 24 m.

Type: Wing in ground effect craft. MMSI: 367452560.

Date/timePositionNaut miles runAvg speedWind from/ knotsBaromVisibWave heightAir tempDewpointWater temp
2017-Sep-25 15:01N 32°20' W 117°43'2 4.8
2017-Sep-25 14:31N 32°18' W 117°40'4 6.9
2017-Sep-25 14:00N 32°21' W 117°38'1 2.6
2017-Sep-25 13:30N 32°22' W 117°39'2 2.9
2017-Sep-25 12:58N 32°22' W 117°41'0 0.2
2017-Sep-25 12:29N 32°22' W 117°41'0 0.3
2017-Sep-25 12:00N 32°22' W 117°41'0 0.3
2017-Sep-25 11:30N 32°22' W 117°41'0 0.4
2017-Sep-25 11:00N 32°22' W 117°41'0 0.3
2017-Sep-25 10:28N 32°22' W 117°41'2 4.5
2017-Sep-25 10:00N 32°23' W 117°40'3 6.1
2017-Sep-25 09:31N 32°26' W 117°38'3 6.3
2017-Sep-25 09:00N 32°29' W 117°36'3 6.4
2017-Sep-25 08:31N 32°31' W 117°34'3 6.6
2017-Sep-25 08:01N 32°34' W 117°32'3 6.8
2017-Sep-25 07:30N 32°37' W 117°29'3 6.9
2017-Sep-25 07:00N 32°39' W 117°27'3 6.8
2017-Sep-25 06:30N 32°42' W 117°24'3 6.8
2017-Sep-25 06:00N 32°44' W 117°20'3 6.5
2017-Sep-25 05:30N 32°45' W 117°17'2 4.1
2017-Sep-25 04:57N 32°46' W 117°14'0 0.2
2017-Sep-25 04:27N 32°46' W 117°14'0 0.0
2017-Sep-25 04:00N 32°46' W 117°14'0 0.2
2017-Sep-25 03:23N 32°46' W 117°14'1 3.0
2017-Sep-25 03:00N 32°45' W 117°16'4 8.9
2017-Sep-25 02:30N 32°42' W 117°19'4 8.8
2017-Sep-25 02:00N 32°39' W 117°22'4 8.8
2017-Sep-25 01:30N 32°35' W 117°25'  
2017-Sep-18 13:04N 32°35' W 117°36'0 0.6
2017-Sep-18 12:58N 32°35' W 117°36'0 0.5
2017-Sep-18 12:29N 32°35' W 117°36'0 0.4
2017-Sep-18 11:59N 32°35' W 117°37'0 0.4
2017-Sep-18 11:29N 32°34' W 117°37'1 2.1
2017-Sep-18 11:00N 32°34' W 117°36'0 0.7
2017-Sep-18 10:30N 32°35' W 117°35'1 1.9
2017-Sep-18 10:00N 32°35' W 117°36'2 4.2
2017-Sep-18 09:30N 32°36' W 117°35'2 4.2
2017-Sep-18 09:00N 32°37' W 117°32'2 4.2
2017-Sep-18 08:30N 32°38' W 117°30'2 4.4
2017-Sep-18 08:00N 32°39' W 117°28'2 4.4
2017-Sep-18 07:30N 32°40' W 117°26'2 4.5
2017-Sep-18 07:00N 32°41' W 117°23'2 4.6
2017-Sep-18 06:30N 32°42' W 117°21'2 4.6
2017-Sep-18 06:00N 32°44' W 117°18'3 5.9
2017-Sep-18 05:30N 32°45' W 117°16'1 2.2
2017-Sep-18 04:55N 32°46' W 117°14'0 0.0
2017-Sep-18 04:25N 32°46' W 117°14'0 0.0
2017-Sep-18 04:01N 32°46' W 117°14'0 0.0
2017-Sep-18 03:26N 32°46' W 117°14'1 2.7
2017-Sep-18 03:00N 32°45' W 117°16'4 8.7
2017-Sep-18 02:30N 32°42' W 117°18'4 8.9
2017-Sep-18 02:01N 32°38' W 117°22'5 9.2
2017-Sep-18 01:31N 32°35' W 117°25'5 9.6
2017-Sep-18 01:00N 32°31' W 117°28'5 9.5
2017-Sep-18 00:30N 32°27' W 117°31'4 7.6
2017-Sep-18 00:00N 32°23' W 117°33'3 7.1
2017-Sep-17 23:30N 32°21' W 117°30'4 0.9
2017-Sep-17 18:57N 32°17' W 117°28'2 4.6
2017-Sep-17 18:27N 32°18' W 117°30'3 6.9
2017-Sep-17 18:00N 32°21' W 117°32'3 5.6
2017-Sep-17 17:29N 32°24' W 117°32'3 6.7
2017-Sep-17 17:00N 32°27' W 117°32'2 4.2
2017-Sep-17 16:25N 32°30' W 117°32'0 0.7
2017-Sep-17 16:00N 32°30' W 117°32'2 4.9
2017-Sep-17 15:30N 32°31' W 117°34'3 5.1
2017-Sep-17 15:00N 32°32' W 117°37'2 3.1
2017-Sep-17 14:30N 32°33' W 117°39'3 5.3
2017-Sep-17 14:00N 32°36' W 117°39'2 3.8
2017-Sep-17 13:30N 32°35' W 117°36'3 5.8
2017-Sep-17 13:00N 32°36' W 117°40'2 4.9
2017-Sep-17 12:30N 32°35' W 117°43'2 3.1
2017-Sep-17 12:00N 32°34' W 117°42'1 1.5
2017-Sep-17 11:30N 32°34' W 117°41'2 3.2
2017-Sep-17 11:00N 32°35' W 117°40'2 3.8
2017-Sep-17 10:30N 32°36' W 117°38'2 3.7
2017-Sep-17 10:00N 32°37' W 117°36'2 3.6
2017-Sep-17 09:30N 32°38' W 117°34'2 3.8
2017-Sep-17 09:00N 32°39' W 117°32'2 4.0
2017-Sep-17 08:30N 32°40' W 117°30'2 4.2
2017-Sep-17 08:00N 32°40' W 117°27'2 4.4
2017-Sep-17 07:30N 32°41' W 117°25'2 4.4
2017-Sep-17 07:00N 32°42' W 117°23'2 4.6
2017-Sep-17 06:30N 32°43' W 117°20'3 5.1
2017-Sep-17 06:00N 32°45' W 117°18'3 6.0
2017-Sep-17 05:30N 32°46' W 117°15'0 0.1
2017-Sep-17 03:45N 32°46' W 117°14'0 0.2
2017-Sep-17 03:29N 32°46' W 117°14'0 0.1
2017-Sep-17 02:59N 32°46' W 117°14'3 5.9
2017-Sep-17 02:31N 32°45' W 117°17'4 8.0
2017-Sep-17 02:01N 32°43' W 117°21'4 8.2
2017-Sep-17 01:30N 32°41' W 117°26'4 8.5
2017-Sep-17 01:00N 32°39' W 117°30'4 8.4
2017-Sep-17 00:30N 32°37' W 117°34'4 8.0
2017-Sep-17 00:01N 32°34' W 117°38'2 4.8
2017-Sep-16 23:30N 32°32' W 117°37'4 7.2
2017-Sep-16 23:00N 32°35' W 117°36'1 1.6
2017-Sep-16 22:30N 32°35' W 117°35'1 3.0
2017-Sep-16 22:00N 32°34' W 117°34'3 6.9
2017-Sep-16 21:30N 32°35' W 117°38'3 6.3
2017-Sep-16 21:00N 32°35' W 117°41'3 5.2
2017-Sep-16 20:30N 32°34' W 117°39'2 4.8
2017-Sep-16 20:00N 32°33' W 117°36'3 6.9
2017-Sep-16 19:30N 32°30' W 117°34'4 8.1
2017-Sep-16 19:00N 32°26' W 117°33'2 3.2
2017-Sep-16 18:30N 32°27' W 117°35'4 7.6
2017-Sep-16 18:00N 32°28' W 117°39'4 7.7
2017-Sep-16 17:30N 32°32' W 117°38'4 7.8
2017-Sep-16 17:00N 32°34' W 117°34'3 6.0
2017-Sep-16 16:30N 32°36' W 117°37'2 3.7
2017-Sep-16 16:00N 32°34' W 117°36'3 6.9
2017-Sep-16 15:30N 32°31' W 117°35'3 5.1
2017-Sep-16 15:00N 32°31' W 117°38'3 6.2
2017-Sep-16 14:30N 32°29' W 117°41'3 5.3
2017-Sep-16 14:00N 32°28' W 117°38'2 4.4
2017-Sep-16 13:30N 32°30' W 117°39'1 2.3
2017-Sep-16 13:00N 32°31' W 117°39'0 0.8
2017-Sep-16 12:29N 32°30' W 117°39'0 0.3
2017-Sep-16 12:01N 32°30' W 117°40'2 3.8
2017-Sep-16 11:31N 32°31' W 117°38'2 4.3
2017-Sep-16 11:00N 32°30' W 117°40'1 1.2
2017-Sep-16 10:30N 32°30' W 117°39'2 4.2
2017-Sep-16 10:00N 32°32' W 117°37'2 4.2
2017-Sep-16 09:30N 32°33' W 117°35'2 4.0
2017-Sep-16 09:01N 32°34' W 117°34'2 4.0
2017-Sep-16 08:30N 32°35' W 117°32'2 4.0
2017-Sep-16 08:00N 32°37' W 117°30'2 4.3
2017-Sep-16 07:30N 32°38' W 117°28'2 4.4
2017-Sep-16 07:00N 32°39' W 117°26'2 4.9
2017-Sep-16 06:30N 32°41' W 117°24'3 5.8
2017-Sep-16 06:01N 32°43' W 117°21'3 6.8
2017-Sep-16 05:31N 32°45' W 117°18'3 5.4
2017-Sep-16 04:56N 32°46' W 117°14'0 0.0
2017-Sep-16 04:12N 32°46' W 117°14'0 0.5
2017-Sep-16 04:00N 32°46' W 117°14'0 0.1
2017-Sep-16 03:08N 32°46' W 117°14'0 0.0
2017-Sep-16 02:56N 32°46' W 117°14'0 0.0
2017-Sep-16 02:30N 32°46' W 117°14'3 6.4
2017-Sep-16 02:00N 32°45' W 117°18'4 7.8
2017-Sep-16 01:30N 32°42' W 117°21'4 7.9
2017-Sep-16 01:00N 32°39' W 117°24'4 7.8
2017-Sep-16 00:30N 32°36' W 117°28'4 7.8
2017-Sep-16 00:00N 32°33' W 117°30'4 8.1
2017-Sep-15 23:30N 32°30' W 117°33'3 5.6
2017-Sep-15 23:00N 32°28' W 117°36'3 6.0
2017-Sep-15 22:30N 32°30' W 117°39'1 1.6
2017-Sep-15 22:00N 32°29' W 117°39'0 0.7
2017-Sep-15 21:31N 32°29' W 117°38'0 0.5
2017-Sep-15 21:00N 32°29' W 117°39'0 0.6
2017-Sep-15 20:30N 32°29' W 117°39'0 0.7
2017-Sep-15 20:00N 32°29' W 117°39'2 4.8
2017-Sep-15 19:30N 32°27' W 117°40'3 6.1
2017-Sep-15 19:00N 32°25' W 117°37'4 8.2
2017-Sep-15 18:30N 32°22' W 117°33'  
Track history (hours):
 
Tides and Currents Weather Stations Pressure Air Temp Water Temp Dewpoint Dewpoint Depression Visibility Wind Speed Wind Dir Waves Ship Positions

Holiday

Owner: VOAKLANDER, TIM J, CARDIFF, CA. More information available from US FCC via Universal Licensing System and Coast Guard Vessel Documentation Center.

Last reported at 2017-Sep-25 15:01 UTC. Time now 2017-Sep-25 15:05 UTC.
Position N 32°20' W 117°43'.

Length 24 m.

Type: Wing in ground effect craft. MMSI: 367452560.

Date/timePositionNaut miles runAvg speedWind from/ knotsBaromVisibWave heightAir tempDewpointWater temp
2017-Sep-25 15:01N 32°20' W 117°43'2 4.8
2017-Sep-25 14:31N 32°18' W 117°40'4 6.9
2017-Sep-25 14:00N 32°21' W 117°38'1 2.6
2017-Sep-25 13:30N 32°22' W 117°39'2 2.9
2017-Sep-25 12:58N 32°22' W 117°41'0 0.2
2017-Sep-25 12:29N 32°22' W 117°41'0 0.3
2017-Sep-25 12:00N 32°22' W 117°41'0 0.3
2017-Sep-25 11:30N 32°22' W 117°41'0 0.4
2017-Sep-25 11:00N 32°22' W 117°41'0 0.3
2017-Sep-25 10:28N 32°22' W 117°41'2 4.5
2017-Sep-25 10:00N 32°23' W 117°40'3 6.1
2017-Sep-25 09:31N 32°26' W 117°38'3 6.3
2017-Sep-25 09:00N 32°29' W 117°36'3 6.4
2017-Sep-25 08:31N 32°31' W 117°34'3 6.6
2017-Sep-25 08:01N 32°34' W 117°32'3 6.8
2017-Sep-25 07:30N 32°37' W 117°29'3 6.9
2017-Sep-25 07:00N 32°39' W 117°27'3 6.8
2017-Sep-25 06:30N 32°42' W 117°24'3 6.8
2017-Sep-25 06:00N 32°44' W 117°20'3 6.5
2017-Sep-25 05:30N 32°45' W 117°17'2 4.1
2017-Sep-25 04:57N 32°46' W 117°14'0 0.2
2017-Sep-25 04:27N 32°46' W 117°14'0 0.0
2017-Sep-25 04:00N 32°46' W 117°14'0 0.2
2017-Sep-25 03:23N 32°46' W 117°14'1 3.0
2017-Sep-25 03:00N 32°45' W 117°16'4 8.9
2017-Sep-25 02:30N 32°42' W 117°19'4 8.8
2017-Sep-25 02:00N 32°39' W 117°22'4 8.8
2017-Sep-25 01:30N 32°35' W 117°25'  
2017-Sep-18 13:04N 32°35' W 117°36'0 0.6
2017-Sep-18 12:58N 32°35' W 117°36'0 0.5
2017-Sep-18 12:29N 32°35' W 117°36'0 0.4
2017-Sep-18 11:59N 32°35' W 117°37'0 0.4
2017-Sep-18 11:29N 32°34' W 117°37'1 2.1
2017-Sep-18 11:00N 32°34' W 117°36'0 0.7
2017-Sep-18 10:30N 32°35' W 117°35'1 1.9
2017-Sep-18 10:00N 32°35' W 117°36'2 4.2
2017-Sep-18 09:30N 32°36' W 117°35'2 4.2
2017-Sep-18 09:00N 32°37' W 117°32'2 4.2
2017-Sep-18 08:30N 32°38' W 117°30'2 4.4
2017-Sep-18 08:00N 32°39' W 117°28'2 4.4
2017-Sep-18 07:30N 32°40' W 117°26'2 4.5
2017-Sep-18 07:00N 32°41' W 117°23'2 4.6
2017-Sep-18 06:30N 32°42' W 117°21'2 4.6
2017-Sep-18 06:00N 32°44' W 117°18'3 5.9
2017-Sep-18 05:30N 32°45' W 117°16'1 2.2
2017-Sep-18 04:55N 32°46' W 117°14'0 0.0
2017-Sep-18 04:25N 32°46' W 117°14'0 0.0
2017-Sep-18 04:01N 32°46' W 117°14'0 0.0
2017-Sep-18 03:26N 32°46' W 117°14'1 2.7
2017-Sep-18 03:00N 32°45' W 117°16'4 8.7
2017-Sep-18 02:30N 32°42' W 117°18'4 8.9
2017-Sep-18 02:01N 32°38' W 117°22'5 9.2
2017-Sep-18 01:31N 32°35' W 117°25'5 9.6
2017-Sep-18 01:00N 32°31' W 117°28'5 9.5
2017-Sep-18 00:30N 32°27' W 117°31'4 7.6
2017-Sep-18 00:00N 32°23' W 117°33'3 7.1
2017-Sep-17 23:30N 32°21' W 117°30'4 0.9
2017-Sep-17 18:57N 32°17' W 117°28'2 4.6
2017-Sep-17 18:27N 32°18' W 117°30'3 6.9
2017-Sep-17 18:00N 32°21' W 117°32'3 5.6
2017-Sep-17 17:29N 32°24' W 117°32'3 6.7
2017-Sep-17 17:00N 32°27' W 117°32'2 4.2
2017-Sep-17 16:25N 32°30' W 117°32'0 0.7
2017-Sep-17 16:00N 32°30' W 117°32'2 4.9
2017-Sep-17 15:30N 32°31' W 117°34'3 5.1
2017-Sep-17 15:00N 32°32' W 117°37'2 3.1
2017-Sep-17 14:30N 32°33' W 117°39'3 5.3
2017-Sep-17 14:00N 32°36' W 117°39'2 3.8
2017-Sep-17 13:30N 32°35' W 117°36'3 5.8
2017-Sep-17 13:00N 32°36' W 117°40'2 4.9
2017-Sep-17 12:30N 32°35' W 117°43'2 3.1
2017-Sep-17 12:00N 32°34' W 117°42'1 1.5
2017-Sep-17 11:30N 32°34' W 117°41'2 3.2
2017-Sep-17 11:00N 32°35' W 117°40'2 3.8
2017-Sep-17 10:30N 32°36' W 117°38'2 3.7
2017-Sep-17 10:00N 32°37' W 117°36'2 3.6
2017-Sep-17 09:30N 32°38' W 117°34'2 3.8
2017-Sep-17 09:00N 32°39' W 117°32'2 4.0
2017-Sep-17 08:30N 32°40' W 117°30'2 4.2
2017-Sep-17 08:00N 32°40' W 117°27'2 4.4
2017-Sep-17 07:30N 32°41' W 117°25'2 4.4
2017-Sep-17 07:00N 32°42' W 117°23'2 4.6
2017-Sep-17 06:30N 32°43' W 117°20'3 5.1
2017-Sep-17 06:00N 32°45' W 117°18'3 6.0
2017-Sep-17 05:30N 32°46' W 117°15'0 0.1
2017-Sep-17 03:45N 32°46' W 117°14'0 0.2
2017-Sep-17 03:29N 32°46' W 117°14'0 0.1
2017-Sep-17 02:59N 32°46' W 117°14'3 5.9
2017-Sep-17 02:31N 32°45' W 117°17'4 8.0
2017-Sep-17 02:01N 32°43' W 117°21'4 8.2
2017-Sep-17 01:30N 32°41' W 117°26'4 8.5
2017-Sep-17 01:00N 32°39' W 117°30'4 8.4
2017-Sep-17 00:30N 32°37' W 117°34'4 8.0
2017-Sep-17 00:01N 32°34' W 117°38'2 4.8
2017-Sep-16 23:30N 32°32' W 117°37'4 7.2
2017-Sep-16 23:00N 32°35' W 117°36'1 1.6
2017-Sep-16 22:30N 32°35' W 117°35'1 3.0
2017-Sep-16 22:00N 32°34' W 117°34'3 6.9
2017-Sep-16 21:30N 32°35' W 117°38'3 6.3
2017-Sep-16 21:00N 32°35' W 117°41'3 5.2
2017-Sep-16 20:30N 32°34' W 117°39'2 4.8
2017-Sep-16 20:00N 32°33' W 117°36'3 6.9
2017-Sep-16 19:30N 32°30' W 117°34'4 8.1
2017-Sep-16 19:00N 32°26' W 117°33'2 3.2
2017-Sep-16 18:30N 32°27' W 117°35'4 7.6
2017-Sep-16 18:00N 32°28' W 117°39'4 7.7
2017-Sep-16 17:30N 32°32' W 117°38'4 7.8
2017-Sep-16 17:00N 32°34' W 117°34'3 6.0
2017-Sep-16 16:30N 32°36' W 117°37'2 3.7
2017-Sep-16 16:00N 32°34' W 117°36'3 6.9
2017-Sep-16 15:30N 32°31' W 117°35'3 5.1
2017-Sep-16 15:00N 32°31' W 117°38'3 6.2
2017-Sep-16 14:30N 32°29' W 117°41'3 5.3
2017-Sep-16 14:00N 32°28' W 117°38'2 4.4
2017-Sep-16 13:30N 32°30' W 117°39'1 2.3
2017-Sep-16 13:00N 32°31' W 117°39'0 0.8
2017-Sep-16 12:29N 32°30' W 117°39'0 0.3
2017-Sep-16 12:01N 32°30' W 117°40'2 3.8
2017-Sep-16 11:31N 32°31' W 117°38'2 4.3
2017-Sep-16 11:00N 32°30' W 117°40'1 1.2
2017-Sep-16 10:30N 32°30' W 117°39'2 4.2
2017-Sep-16 10:00N 32°32' W 117°37'2 4.2
2017-Sep-16 09:30N 32°33' W 117°35'2 4.0
2017-Sep-16 09:01N 32°34' W 117°34'2 4.0
2017-Sep-16 08:30N 32°35' W 117°32'2 4.0
2017-Sep-16 08:00N 32°37' W 117°30'2 4.3
2017-Sep-16 07:30N 32°38' W 117°28'2 4.4
2017-Sep-16 07:00N 32°39' W 117°26'2 4.9
2017-Sep-16 06:30N 32°41' W 117°24'3 5.8
2017-Sep-16 06:01N 32°43' W 117°21'3 6.8
2017-Sep-16 05:31N 32°45' W 117°18'3 5.4
2017-Sep-16 04:56N 32°46' W 117°14'0 0.0
2017-Sep-16 04:12N 32°46' W 117°14'0 0.5
2017-Sep-16 04:00N 32°46' W 117°14'0 0.1
2017-Sep-16 03:08N 32°46' W 117°14'0 0.0
2017-Sep-16 02:56N 32°46' W 117°14'0 0.0
2017-Sep-16 02:30N 32°46' W 117°14'3 6.4
2017-Sep-16 02:00N 32°45' W 117°18'4 7.8
2017-Sep-16 01:30N 32°42' W 117°21'4 7.9
2017-Sep-16 01:00N 32°39' W 117°24'4 7.8
2017-Sep-16 00:30N 32°36' W 117°28'4 7.8
2017-Sep-16 00:00N 32°33' W 117°30'4 8.1
2017-Sep-15 23:30N 32°30' W 117°33'3 5.6
2017-Sep-15 23:00N 32°28' W 117°36'3 6.0
2017-Sep-15 22:30N 32°30' W 117°39'1 1.6
2017-Sep-15 22:00N 32°29' W 117°39'0 0.7
2017-Sep-15 21:31N 32°29' W 117°38'0 0.5
2017-Sep-15 21:00N 32°29' W 117°39'0 0.6
2017-Sep-15 20:30N 32°29' W 117°39'0 0.7
2017-Sep-15 20:00N 32°29' W 117°39'2 4.8
2017-Sep-15 19:30N 32°27' W 117°40'3 6.1
2017-Sep-15 19:00N 32°25' W 117°37'4 8.2
2017-Sep-15 18:30N 32°22' W 117°33'  

Dump ship's entire track history